Weather History for Baker, MT

Change the Weather History Date:

Tuesday, November 12, 2013

  Actual Average Record
Temperature  
Mean Temperature 34 °F -  
Max Temperature 55 °F 16 °F 75 °F (1999)
Min Temperature 12 °F -17 °F -9 °F (2000)
Degree Days  
Heating Degree Days 32    
Moisture  
Dew Point 25 °F    
Average Humidity 75    
Maximum Humidity 96    
Minimum Humidity 42    
Precipitation  
Precipitation 0.00 in - - ()
Sea Level Pressure  
Sea Level Pressure 30.42 in    
Wind  
Wind Speed 8 mph (SSE)    
Max Wind Speed 15 mph    
Max Gust Speed -    
Visibility 10 miles    
Events      
Averages and records for this station are not official NWS values.
T = Trace of Precipitation, MM = Missing Value Source: NWS Daily Summary

Daily Weather History Graph

Daily Weather History Graph

Search for Another Location

Airport:

Trip Planner

Search our weather history database for the weather conditions in past years. The results will help you decide how hot, cold, wet, or windy it might be!

Date:

Astronomy

Nov. 12, 2013 Rise Set
Actual Time 6:54 AM MST 4:27 PM MST
Civil Twilight 6:22 AM MST 4:59 PM MST
Nautical Twilight 5:45 AM MST 5:35 PM MST
Astronomical Twilight 5:10 AM MST 6:11 PM MST
Moon 1:57 PM MST (11/12) 1:30 AM MST (11/12)
Length of Visible Light 10h 37m
Length of Day
9h 32m
Waxing Gibbous, 77% of the Moon is Illuminated
Nov 12
Waxing Gibbous
Nov 17
Full
Nov 25
Last Quarter
Dec 2
New
Dec 9
First Quarter

Hourly Weather History & Observations

Time (MST) Temp. Windchill Dew Point Humidity Pressure Visibility Wind Dir Wind Speed Gust Speed Precip Events Conditions
12:51 AM 14.0 °F 5.1 °F 12.0 °F 92% 30.66 in 10.0 mi ESE 5.8 mph - N/A   Clear
1:51 AM 12.9 °F 2.6 °F 12.0 °F 96% 30.65 in 10.0 mi SE 6.9 mph - N/A   Clear
2:51 AM 12.0 °F 1.5 °F 10.0 °F 92% 30.64 in 10.0 mi SE 6.9 mph - N/A   Clear
3:51 AM 12.9 °F 2.6 °F 10.9 °F 92% 30.64 in 10.0 mi SE 6.9 mph - N/A   Clear
4:51 AM 12.0 °F 1.5 °F 10.9 °F 95% 30.65 in 10.0 mi ESE 6.9 mph - N/A   Clear
5:51 AM 12.9 °F 3.8 °F 12.0 °F 96% 30.64 in 10.0 mi ESE 5.8 mph - N/A   Clear
6:51 AM 14.0 °F 2.9 °F 12.9 °F 95% 30.60 in 10.0 mi ESE 8.1 mph - N/A   Clear
7:51 AM 19.0 °F 11.1 °F 18.0 °F 96% 30.58 in 10.0 mi ESE 5.8 mph - N/A   Clear
8:51 AM 26.1 °F 21.9 °F 23.0 °F 88% 30.56 in 10.0 mi ESE 3.5 mph - N/A   Clear
9:51 AM 36.0 °F 32.1 °F 30.0 °F 79% 30.52 in 10.0 mi East 4.6 mph - N/A   Clear
10:51 AM 46.0 °F 41.0 °F 32.0 °F 58% 30.47 in 10.0 mi South 10.4 mph - N/A   Clear
11:51 AM 51.1 °F - 32.0 °F 48% 30.43 in 10.0 mi SW 11.5 mph - N/A   Clear
12:51 PM 53.1 °F - 30.9 °F 43% 30.39 in 10.0 mi SSW 10.4 mph - N/A   Clear
1:51 PM 55.0 °F - 32.0 °F 42% 30.35 in 10.0 mi South 13.8 mph - N/A   Clear
2:51 PM 55.0 °F - 33.1 °F 43% 30.32 in 10.0 mi South 12.7 mph - N/A   Clear
3:51 PM 46.9 °F - 34.0 °F 61% 30.30 in 10.0 mi SSE 12.7 mph - N/A   Clear
4:51 PM 36.0 °F 32.1 °F 30.9 °F 82% 30.32 in 10.0 mi SE 4.6 mph - N/A   Clear
5:51 PM 42.1 °F 34.9 °F 33.1 °F 70% 30.27 in 10.0 mi South 13.8 mph - N/A   Clear
6:51 PM 37.0 °F 31.6 °F 30.9 °F 79% 30.27 in 10.0 mi SE 6.9 mph - N/A   Clear
7:51 PM 34.0 °F - 28.9 °F 82% 30.25 in 10.0 mi Calm Calm - N/A   Clear
8:51 PM 45.0 °F 40.6 °F 34.0 °F 65% 30.20 in 10.0 mi SW 8.1 mph - N/A   Clear
9:51 PM 44.1 °F 37.4 °F 33.1 °F 65% 30.17 in 10.0 mi WSW 13.8 mph - N/A   Clear
10:51 PM 43.0 °F 35.7 °F 32.0 °F 65% 30.14 in 10.0 mi WSW 15.0 mph - N/A   Clear
11:51 PM 39.0 °F 36.8 °F 30.0 °F 70% 30.14 in 10.0 mi West 3.5 mph - N/A   Clear